CAPE
0 0 0 0 0 0 0 0 0 0 0 0 0 0 0 0 0 0 0 0 0 0 0 0 0 0 0 0 0 0 0 0 0 0 0 0 0 0 0 0 0 0 0
0 0 0 0 0 0 0 0 0 0 0 0 0 0 0 0 0 0 0 0 0 0 0 0 0 0 0 0 0 0 0 0 0 0 0 0 0 0 0 0 0 0 0
0 0 0 0 0 0 0 0 0 0 0 0 0 1 0 0 0 0 0 0 0 0 0 0 0 0 0 0 0 0 0 0 0 0 0 0 0 0 0 0 0 0 0
0 0 0 0 0 0 0 0 0 0 0 0 0 0 0 0 0 0 0 0 0 0 0 0 0 0 0 0 0 0 0 0 0 0 0 0 0 0 0 0 0 0 0
0 0 0 0 0 0 0 1 0 0 0 0 0 0 0 0 0 0 0 0 0 0 0 0 0 0 0 0 0 0 0 0 0 0 0 0 0 0 0 0 0 0 0
0 0 0 0 0 0 0 0 0 0 0 0 0 0 0 0 0 0 0 0 0 0 0 0 0 0 0 0 0 0 0 0 0 0 0 0 0 0 0 0 0 0 0
0 0 0 0 0 0 0 0 0 0 0 0 0 0 0 0 0 0 0 0 0 0 0 0 0 0 0 0 0 0 0 0 0 0 0 0 0 0 0 0 0 0 0
0 0 0 0 0 0 0 0 0 0 0 0 0 0 0 0 0 0 0 0 0 0 0 0 0 0 0 0 0 0 0 0 0 0 0 0 0 0 0 0 0 0 0
0 0 0 0 0 0 0 0 0 0 0 0 0 0 0 0 0 0 0 0 0 0 0 0 0 0 0 0 0 0 0 0 0 0 0 0 0 0 0 0 0 0 0
0 0 0 0 0 0 0 0 0 0 0 0 0 0 0 0 0 0 0 0 0 0 0 0 0 0 0 0 0 0 0 0 0 0 0 0 0 0 1 0 0 0 0
0 0 0 0 0 0 0 0 0 0 0 0 0 0 0 0 0 1 0 0 0 0 0 0 0 0 0 0 0 0 0 0 0 0 0 0 0 0 0 0 0 0 0
0 0 0 0 0 0 0 0 0 0 0 0 0 0 0 0 0 2 3 0 0 0 0 0 0 0 0 0 0 0 0 0 0 0 0 0 0 0 0 0 0 0 0
0 1 0 0 0 0 0 0 0 0 0 0 0 0 0 0 0 1 3 3 1 0 0 0 0 0 0 0 3 2 0 0 0 0 0 0 0 0 0 0 0 0 0
0 1 0 0 0 0 0 0 0 0 0 0 0 0 0 0 0 0 0 0 1 0 0 0 0 0 0 0 0 3 0 0 0 0 0 0 0 0 0 0 0 0 0
0 0 0 0 0 0 0 0 0 0 0 0 0 0 0 0 0 0 0 0 0 0 0 0 0 0 0 1 0 0 0 0 0 0 0 0 0 0 0 0 0 0 0
1 0 0 0 0 0 0 0 0 0 0 0 0 0 0 0 0 0 0 1 1 2 0 0 0 0 0 0 0 0 0 0 0 0 0 0 0 0 0 0 0 0 0
1 0 0 0 0 0 0 0 0 0 0 0 0 0 0 0 0 0 0 0 2 7 0 0 0 0 0 0 0 0 0 0 0 0 0 0 0 0 0 0 0 0 0
0 0 0 0 0 0 0 0 0 0 1 0 0 0 0 0 0 3 7 4 1 6 3 1 0 0 0 0 0 0 0 0 0 0 0 0 0 0 0 0 0 0 0
0 0 0 0 0 0 0 0 0 0 0 0 0 0 0 0 0 0 3 1 0 2 2 3 1 0 0 0 0 0 0 0 0 0 0 0 0 0 0 0 0 0 0
0 0 0 0 0 0 0 0 0 1 1 0 0 0 0 0 0 0 0 3 6 6 2 0 0 0 0 0 0 0 0 0 0 0 0 0 0 0 0 0 0 0 0
0 0 0 0 0 0 0 0 0 0 0 0 0 0 4 0 1 0 0 0 0 0 1 1 0 0 0 0 0 0 0 0 0 0 0 0 0 0 0 0 0 0 0
0 0 0 0 0 0 0 0 0 0 0 0 0 0 1 0 0 0 0 0 0 1 0 0 4 7 1 0 0 0 0 0 0 0 0 0 0 0 0 0 0 0 0
0 0 0 0 0 0 0 0 0 1 0 0 0 0 0 0 0 0 0 0 0 0 0 0 0 0 0 0 0 0 0 0 0 0 0 0 0 0 0 0 0 0 0
0 0 0 0 0 0 0 0 0 0 0 0 0 0 0 0 0 0 0 0 0 0 0 0 0 0 0 0 0 0 0 0 0 0 0 0 0 0 0 0 0 0 0
0 0 0 0 0 0 0 0 0 0 0 0 0 0 0 0 0 0 0 0 0 0 0 0 0 0 0 0 0 0 0 0 0 0 0 0 0 0 0 0 0 0 0
0 0 0 0 0 0 0 0 0 0 0 0 0 0 0 0 0 0 0 0 0 0 0 0 0 0 0 0 0 0 0 2 0 0 0 0 0 0 0 0 0 0 0
CIN
0 0 0 0 0 0 0 0 0 0 0 0 0 0 0 0 0 0 0 0 0 0 0 0 0 0 0 0 0 0 0 0 0 0 0 0 0 0 0 0 0 0 0
0 0 0 0 0 0 0 -16 0 0 0 0 0 0 0 0 0 0 0 0 0 0 0 0 0 0 0 0 0 0 0 0 0 0 0 0 0 0 0 0 0 0 0
0 0 0 0 0 0 0 0 0 0 0 0 0 0 0 0 0 0 0 0 0 0 0 0 0 0 0 0 0 0 0 0 0 0 0 0 0 0 0 0 0 0 0
0 0 0 0 0 0 0 0 0 0 0 0 0 0 0 0 0 0 0 0 0 0 0 0 0 0 0 0 0 0 0 0 0 0 0 0 0 0 0 0 0 0 0
0 0 0 0 0 0 0 0 0 0 0 0 0 0 0 0 0 0 0 0 0 0 0 0 0 0 0 0 0 0 0 0 0 0 0 0 0 0 0 0 0 0 0
0 0 0 0 0 0 0 0 0 0 0 0 0 0 0 0 0 0 0 0 0 0 0 0 0 0 0 0 0 0 0 0 0 0 0 0 0 0 0 0 0 0 0
0 0 0 0 0 0 0 0 0 0 0 0 0 0 0 0 0 0 0 0 0 0 0 0 0 0 0 0 0 0 0 0 0 0 0 0 0 0 0 0 0 0 0
0 0 0 0 0 0 0 0 0 0 0 0 0 0 0 0 0 0 0 0 0 0 0 0 0 0 0 0 0 0 0 0 0 0 0 0 0 0 0 0 0 0 0
0 0 0 0 0 0 0 0 0 0 0 0 0 0 0 0 0 0 0 0 0 0 0 0 0 0 0 0 0 0 0 0 0 0 0 0 0 0 0 0 0 0 0
0 0 0 0 0 0 0 0 0 0 0 0 0 0 0 0 0 0 0 0 0 0 0 0 0 0 0 0 0 0 0 0 0 0 0 0 0 0 0 0 0 0 0
0 0 0 0 0 0 0 0 0 0 0 0 0 0 0 0 0 0 0 0 0 0 0 0 0 0 0 0 0 0 0 0 0 0 0 0 0 0 0 0 0 0 0
0 0 0 0 0 0 0 0 0 0 0 0 0 0 0 0 0 0 0 0 0 0 0 0 0 0 0 0 0 0 0 0 0 0 0 0 0 0 0 0 0 0 0
0 0 0 0 0 0 0 0 0 0 0 0 0 0 0 0 0 0 0 0 0 0 0 0 0 0 0 0 0 0 0 0 0 0 0 0 0 0 0 0 0 0 0
0 0 0 0 0 0 0 0 0 0 0 0 0 0 0 0 0 0 0 0 0 0 0 0 0 0 0 0 0 -1 0 0 0 0 0 0 0 0 0 0 0 0 0
0 0 0 0 0 0 0 0 0 0 0 0 0 0 0 0 0 0 0 0 0 0 0 0 0 0 0 0 0 0 0 0 0 0 0 0 0 0 0 0 0 0 0
0 0 0 0 0 0 0 0 0 0 0 0 0 0 0 0 0 0 0 0 0 0 0 0 0 0 0 0 0 0 0 0 0 0 0 0 0 0 0 0 0 0 0
0 0 0 0 0 0 0 0 0 0 0 0 0 0 0 0 0 0 0 0 0 0 -1 0 0 0 0 0 0 0 0 0 0 0 0 0 0 0 0 0 0 0 0
0 0 0 0 0 0 0 0 0 0 0 0 0 0 0 0 0 0 0 -1 -1 -1 0 0 0 0 0 0 0 0 0 0 0 0 0 0 0 0 0 0 0 0 0
0 0 0 0 0 0 0 0 0 0 0 0 0 0 0 0 0 0 0 -3 -2 -1 -1 0 -1 0 0 0 0 0 0 0 0 0 0 0 0 0 0 0 0 0 0
0 0 0 0 -1 -1 -1 0 0 0 0 0 0 0 0 0 0 0 0 -3 0 0 -2 0 -1 -1 0 0 0 0 0 0 0 0 0 0 0 0 0 0 0 0 0
0 0 0 0 0 -1 0 0 0 0 0 0 -1 0 0 0 0 -1 0 -1 -1 0 0 -1 0 0 0 0 0 0 0 0 0 0 0 0 0 0 0 0 0 0 0
0 0 0 0 0 0 0 0 -1 -1 0 0 0 0 0 0 0 0 0 -1 0 0 0 0 -1 0 -3 0 0 0 0 0 0 0 0 0 0 0 0 0 0 0 0
0 0 0 0 0 0 0 0 0 -1 -1 -1 -1 0 0 0 0 0 0 0 0 0 0 0 0 0 0 0 0 0 0 0 0 0 0 0 0 0 0 0 0 0 0
0 0 0 0 0 0 0 0 0 0 0 0 0 0 0 0 0 0 0 0 0 0 0 0 0 0 0 0 0 0 0 0 0 0 0 0 0 0 0 0 0 0 0
0 0 0 0 0 0 0 0 0 0 0 0 0 0 0 0 0 0 0 0 0 0 0 0 0 0 0 0 0 0 0 0 0 0 0 0 0 0 0 0 0 0 0
0 0 0 0 0 0 0 0 0 0 0 0 0 0 0 0 0 0 0 0 0 0 0 0 0 0 0 0 0 0 0 0 0 0 0 0 0 0 0 0 0 0 0
Wind_Speed
7 7 7 8 8 8 12 12 12 8 10 12 13 13 12 11 9 9 8 8 10 9 6 10 8 6 5 5 4 3 4 4 4 2 3 4 4 5 3 2 1 0 0
8 8 10 7 7 8 11 11 7 9 6 8 8 8 8 9 9 11 10 9 12 11 10 8 9 6 7 6 5 5 5 4 4 5 2 3 3 3 3 2 2 1 1
5 7 6 7 7 7 7 7 7 6 6 6 7 8 8 9 10 10 11 11 12 12 11 11 11 11 8 7 5 6 5 3 3 4 3 2 2 2 2 2 2 2 2
5 5 6 6 6 5 5 6 6 6 6 6 7 8 9 9 9 9 9 10 10 8 11 11 11 12 11 10 8 7 6 6 3 3 2 3 2 2 1 2 1 1 2
4 3 5 4 4 4 4 5 5 7 7 7 7 6 5 6 6 8 8 9 9 8 6 8 10 10 11 13 9 9 9 6 5 4 2 2 3 3 3 2 2 2 2
4 3 2 3 4 5 5 5 4 3 3 2 4 5 6 5 11 16 14 11 11 12 11 9 9 11 14 17 16 16 15 13 9 5 4 4 5 4 4 3 3 1 2
4 3 3 3 2 1 2 3 5 5 3 5 5 4 6 6 11 14 12 9 11 11 12 9 9 7 8 9 11 15 14 15 10 7 7 5 6 6 8 4 4 3 3
2 2 3 3 4 4 4 4 3 1 4 4 5 6 5 5 11 13 13 7 8 9 10 12 12 11 11 12 11 8 8 8 8 6 4 4 1 4 8 6 6 3 0
2 3 3 3 3 3 4 4 5 5 4 4 3 4 5 5 12 15 13 7 8 9 8 9 11 13 18 21 13 11 8 5 7 10 8 8 10 13 9 7 4 3 3
0 2 2 3 4 3 3 3 2 1 2 4 4 3 4 4 10 14 13 5 7 7 7 8 10 8 15 19 10 10 10 11 9 4 5 9 11 10 16 8 7 5 3
1 2 2 1 2 2 3 1 1 1 2 2 3 3 3 4 6 16 18 6 6 5 6 6 7 18 21 23 18 11 11 7 12 7 6 4 4 5 5 7 8 6 5
4 4 4 4 2 2 1 1 2 3 2 2 3 2 2 3 7 15 18 15 9 6 7 5 7 21 22 25 18 15 14 9 6 7 7 8 8 8 7 6 8 8 7
5 5 3 4 4 2 1 1 1 1 1 1 1 2 2 1 2 12 16 18 14 6 4 9 14 19 21 20 21 20 14 7 7 8 9 9 9 7 6 4 5 6 7
5 5 2 3 3 3 2 1 1 1 2 1 2 2 2 2 3 3 5 7 10 8 6 6 10 13 16 12 10 14 9 9 10 10 8 6 5 5 6 6 6 6 5
3 3 4 3 4 3 2 1 1 2 3 2 3 2 2 3 4 8 8 6 7 9 5 2 5 6 8 9 8 9 9 9 9 9 8 6 7 7 7 7 6 5 8
5 3 3 3 3 2 2 3 7 7 8 7 7 5 3 9 9 11 16 17 17 15 5 6 7 8 9 9 10 10 10 11 10 9 9 8 8 9 8 6 7 8 9
6 4 2 3 3 3 3 3 4 6 9 9 11 12 13 11 11 11 15 17 18 15 7 8 8 8 9 9 9 9 11 11 11 10 10 9 9 8 8 9 8 8 10
7 6 3 3 4 3 2 1 1 1 2 4 7 10 10 13 15 14 12 12 6 10 7 8 8 8 8 9 9 10 10 9 10 10 9 9 10 10 9 10 10 11 9
5 3 3 2 2 3 3 3 2 2 2 3 3 6 7 13 12 11 11 4 5 6 7 8 8 7 8 8 9 10 11 10 10 9 9 9 10 10 11 10 10 12 11
7 7 6 5 4 4 3 4 3 3 2 2 2 3 4 3 2 2 3 4 6 7 7 8 8 7 7 8 8 9 9 10 8 8 8 8 8 9 10 10 10 9 10
3 2 5 3 3 2 3 4 3 3 4 1 2 3 14 7 6 3 4 4 4 6 8 7 8 9 9 9 9 9 9 10 9 9 9 9 9 10 10 9 9 9 9
3 3 3 3 2 3 2 4 1 3 4 5 5 3 14 2 4 6 7 7 6 7 7 8 8 8 7 8 9 9 9 10 8 8 9 8 8 9 9 9 9 9 9
3 4 4 3 2 3 3 3 3 2 2 4 5 3 4 3 2 3 6 6 7 8 8 8 8 7 4 4 4 5 6 7 7 6 8 8 8 9 9 9 9 8 9
3 4 3 3 3 3 3 4 4 5 5 3 3 4 3 5 4 4 4 5 6 7 7 6 8 11 9 7 4 4 6 7 5 6 9 8 8 8 7 7 7 9 8
2 2 2 1 1 1 2 2 3 3 3 3 3 3 5 5 6 5 5 5 7 7 7 7 7 9 10 11 11 13 11 13 10 6 6 8 9 10 8 8 8 8 9
1 1 1 1 2 2 1 2 3 3 4 3 3 3 3 4 5 5 5 5 6 7 8 5 7 10 10 8 10 12 11 12 9 8 6 5 6 6 6 7 9 6 8
Wind_Direction
201 207 208 212 204 200 215 218 215 209 199 201 206 204 199 192 191 204 203 184 190 176 169 176 173 154 161 145 146 142 155 131 124 169 149 158 167 151 154 148 181 104 352
205 203 210 210 213 213 217 216 190 205 191 197 190 192 195 194 187 197 199 203 198 193 182 173 169 155 168 151 159 160 158 155 137 151 159 158 151 156 170 182 213 234 227
219 218 228 221 209 217 218 202 186 183 185 174 172 186 190 193 192 199 209 198 201 201 190 180 183 160 169 164 167 163 157 139 126 140 146 149 122 140 183 165 203 276 259
227 229 231 223 219 216 213 205 207 188 186 183 186 189 192 193 197 191 192 199 198 206 185 184 172 178 175 170 166 174 153 145 139 118 123 140 139 164 180 144 244 253 270
218 228 245 261 260 232 216 210 197 189 187 181 176 182 181 182 184 182 182 186 184 166 180 166 171 171 184 184 165 178 159 148 154 155 148 129 166 147 171 192 150 217 283
200 237 308 325 338 328 333 322 319 310 286 236 228 205 196 206 199 192 185 185 177 174 183 175 171 171 172 183 181 185 175 168 172 164 164 195 184 177 143 161 152 122 299
170 192 186 174 181 238 355 351 322 303 308 286 274 241 241 222 205 195 187 186 180 180 166 177 168 184 169 191 190 184 180 183 176 170 172 188 180 175 136 159 176 171 197
191 235 224 205 203 194 184 201 210 226 272 268 258 245 239 239 211 190 174 172 168 171 175 177 172 167 192 177 172 189 192 185 181 179 172 143 134 168 154 160 174 168 32
171 237 249 236 236 222 226 218 196 174 186 224 269 253 240 251 209 189 170 171 177 181 186 181 180 179 192 184 171 186 178 197 184 176 174 182 182 176 182 127 151 129 221
356 270 248 211 192 219 240 222 232 221 198 173 202 222 238 242 215 195 186 186 189 178 176 187 191 189 185 185 183 179 195 204 175 157 190 206 205 201 200 182 163 177 175
360 52 69 58 238 220 187 189 228 253 213 183 180 177 202 205 214 206 201 197 202 198 191 182 180 188 187 196 193 197 207 163 184 177 183 192 200 203 213 185 187 182 194
48 55 41 41 15 26 156 243 147 155 193 215 206 206 198 189 207 216 215 217 209 193 195 176 187 195 192 203 195 214 200 175 169 176 192 209 208 211 205 198 189 200 206
76 62 52 45 55 44 81 65 4 166 178 183 225 281 255 205 208 228 218 221 225 211 182 184 188 196 201 209 206 205 198 188 182 191 206 212 212 208 181 184 191 204 209
87 75 51 80 40 28 45 117 113 351 304 260 204 236 234 221 229 218 231 229 224 214 193 190 197 198 202 199 204 207 198 204 202 207 213 211 185 181 193 173 184 186 207
76 66 59 48 61 31 2 225 262 254 182 236 281 262 214 235 233 225 217 216 212 214 183 173 198 199 200 205 205 206 204 209 211 212 213 201 196 196 197 182 185 186 217
84 56 50 51 17 31 48 358 351 344 320 313 311 285 272 265 272 231 232 236 232 221 191 209 215 210 210 209 211 211 214 219 219 217 214 206 201 205 201 190 191 202 213
80 55 54 60 61 32 18 48 11 344 352 341 328 324 319 302 290 269 238 239 241 230 221 216 219 216 218 219 219 216 218 218 216 218 211 210 207 208 198 200 200 203 216
81 68 69 69 57 42 49 55 75 51 326 318 334 340 328 330 320 305 282 256 261 248 236 238 234 229 225 222 219 224 227 216 208 212 216 209 208 203 207 210 205 205 208
82 73 63 51 41 60 19 7 27 358 340 307 325 352 331 327 324 319 302 285 255 252 256 256 252 234 229 228 227 228 230 229 222 207 214 218 215 200 206 209 210 207 195
80 52 67 69 52 41 23 16 351 353 342 327 331 299 315 337 304 291 282 278 282 280 269 258 255 257 242 237 235 233 234 232 222 218 216 213 215 215 216 205 201 200 201
69 5 12 70 78 40 54 22 339 339 341 311 282 326 343 347 331 313 286 277 271 271 276 269 255 249 242 235 234 235 232 229 216 211 213 214 206 211 211 212 201 201 194
43 38 34 45 21 28 10 6 358 347 347 336 343 335 346 349 332 332 334 328 319 308 290 282 277 268 253 242 240 236 230 229 224 222 222 218 213 213 207 202 200 195 192
47 43 34 22 23 12 4 326 345 357 336 327 320 332 334 316 302 323 328 328 328 324 323 315 305 302 299 294 300 281 264 251 243 227 225 221 219 217 211 208 198 192 189
35 41 35 21 15 10 356 343 340 343 345 334 344 322 306 310 313 317 311 314 315 314 317 319 318 313 313 308 279 272 271 274 264 238 222 230 223 216 205 199 196 192 188
36 31 17 2 3 338 330 319 306 308 315 311 318 328 329 321 318 320 322 323 320 315 311 312 312 311 308 307 303 297 280 273 264 237 226 225 215 197 203 207 195 190 188
352 344 292 309 322 331 341 314 311 310 306 299 297 292 289 308 305 307 309 311 312 314 305 296 295 297 295 295 294 288 276 268 262 235 222 216 209 205 202 195 192 190 189